Location: Unspecified
(51.0950°N, 12.9690°E)
Time: 21:28:24
(UTC+00:00)

JY1SAT - Pass Details

Date: 01 May 2024
Orbit: 538 x 552 km, 97.5° (Epoch: 25 May)

Event Time Altitude Azimuth Distance (km) Brightness Sun altitude
Exits shadow 21:25:44 - 233° (SW) 2,132 ? -20.0°
Reaches altitude 10° 21:27:16 10° 251° (WSW) 1,813 ? -20.1°
Maximum altitude 21:28:45 12° 273° (W) 1,700 ? -20.2°
Drops below altitude 10° 21:30:13 10° 295° (WNW) 1,815 ? -20.3°
Sets 21:33:41 0° 328° (NNW) 2,712 ? -20.5°
